Weather in Krivtsovo

Russia / Belgorod Oblast     50°47′49″N   36°45′15″E
temp.,
°C
wind,
m/s
gust,
m/s
humid.,
%
clouds,
%
prec.,
mm/h
press.,
hPa
HPBL,
m
14 april, wed
wed1400:00+10s368565 0.0 1021255
03:00+8s229149 0.0 102122
06:00+8e1189100 0.0 102012
09:00+11ene1273100 0.0 1019301
12:00+15nne226474 0.2 1017795
15:00+17s235198 0.8 10151278
18:00+15w226599 1.1 1014108
21:00+12w2277100 1.6 101548
15 april, thu
thu1500:00+11ene1178100 0.1 101412
03:00+9sw3692100 0.1 1014137
06:00+8ssw359313 0.0 1014111
09:00+11s4572100 0.0 1015505
12:00+14sse56525 0.0 10141408
15:00+14s5659100 0.0 10131454
18:00+14sse466499 0.4 1013826
21:00+12se3777100 1.3 1013275
16 april, fri
fri1600:00+10se378238 0.8 1013219
03:00+8sse38900 0.8 1014201
06:00+6sse36934 0.0 1015161
09:00+10sse57703 0.0 1016740
12:00+13sse685476 0.0 10161660
15:00+12ssw675799 0.1 10161041
18:00+12ssw346186 0.0 1017634
21:00+8wsw11795 0.0 101811
17 april, sat
sat1700:00+7wnw008096 0.0 101810
03:00+7s1181100 0.0 101810
06:00+7ne2293100 0.4 101885
09:00+7nnw3490100 7.1 1018365
12:00+7wnw4685100 1.1 1018779
15:00+8w3585100 1.3 1019670
18:00+9sw137795 0.1 1019784
21:00+7ese3493100 0.9 1020186
18 april, sun
sun1800:00+7ese2594100 2.8 1020276
03:00+7se1196100 4.5 102189
06:00+7ese249192 0.1 1021137
09:00+9ene348092 0.2 1021336
12:00+12ene4455100 0.6 10211418
15:00+13ene4453100 1.0 10211435
18:00+12ne466480 0.1 1021727
21:00+9ne51088100 2.3 1022390